Tracking 29892 objects as of 21-Nov-2024
HD Live streaming from Space Station
objects crossing your sky now

STARLINK-5172

Track STARLINK-5172 now!
10-day predictions
STARLINK-5172 is classified as:


NORAD ID: 54064
Int'l Code: 2022-136P
Perigee: 546.0 km
Apogee: 547.7 km
Inclination: 53.2 °
Period: 95.4 minutes
Semi major axis: 6917 km
RCS: Unknown
Launch date: October 20, 2022
Source: United States (US)
Launch site: AIR FORCE EASTERN TEST RANGE (AFETR)
Your satellite tracking list
Your tracking list is empty




NASA's NSSDC Master Catalog

Two Line Element Set (TLE):
1 54064U 22136P   24325.08804334  .00000333  00000-0  38987-4 0  9997
2 54064  53.2174 269.8666 0001232  91.1492 268.9641 15.08835903116309
Source of the keplerian elements: AFSPC